Weather History for KANK - July, 2013

Change the Weather History Date:

Tuesday, July 9, 2013

  Actual Average (KGUC) Record (KGUC)
Temperature  
Mean Temperature 74 °F -  
Max Temperature 90 °F 77 °F 86 °F (2002)
Min Temperature 57 °F 44 °F 37 °F (1997)
Cooling Degree Days 8    
Growing Degree Days 24 (Base 50)    
Moisture  
Dew Point 36 °F    
Average Humidity 27    
Maximum Humidity 51    
Minimum Humidity 12    
Precipitation  
Precipitation 0.00 in - - ()
Sea Level Pressure  
Sea Level Pressure 30.46 in    
Wind  
Wind Speed 8 mph (North)    
Max Wind Speed 21 mph    
Max Gust Speed 31 mph    
Visibility 10 miles    
Events      
Averages and records for this station are not official NWS values.
T = Trace of Precipitation, MM = Missing Value Source: NWS Daily Summary

Daily Weather History Graph

Daily Weather History Graph

Search for Another Location

Airport or City:

Trip Planner

Search our weather history database for the weather conditions in past years. The results will help you decide how hot, cold, wet, or windy it might be!

Date:

Astronomy

Jul. 09, 2013 Rise Set
Actual Time 5:48 AM MDT 8:30 PM MDT
Civil Twilight 5:17 AM MDT 9:01 PM MDT
Nautical Twilight 4:37 AM MDT 9:40 PM MDT
Astronomical Twilight 3:53 AM MDT 10:24 PM MDT
Moon 7:13 AM MDT (7/9) 9:11 PM MDT (7/9)
Length of Visible Light 15h 44m
Length of Day
14h 42m
New Moon, 2% of the Moon is Illuminated
Jul 9
New Moon
Jul 15
First Quarter
Jul 22
Full
Jul 29
Last Quarter
Aug 6
New

Hourly Weather History & Observations

Time (MDT) Temp. Dew Point Humidity Pressure Visibility Wind Dir Wind Speed Gust Speed Precip Events Conditions
12:15 AM 72.5 °F 37.6 °F 28% 30.44 in 10.0 mi NW 11.5 mph - N/A   Clear
12:35 AM 71.4 °F 38.1 °F 30% 30.45 in 10.0 mi NNW 8.1 mph - N/A   Clear
12:55 AM 69.6 °F 37.8 °F 31% 30.45 in 10.0 mi NNW 5.8 mph - N/A   Clear
1:15 AM 69.3 °F 36.7 °F 30% 30.45 in 10.0 mi NNW 10.4 mph - N/A   Clear
1:35 AM 69.8 °F 36.0 °F 29% 30.45 in 10.0 mi NNW 11.5 mph - N/A   Clear
1:55 AM 68.2 °F 36.3 °F 31% 30.45 in 10.0 mi NNW 11.5 mph - N/A   Clear
2:15 AM 67.3 °F 36.0 °F 32% 30.45 in 10.0 mi NNW 10.4 mph - N/A   Clear
2:35 AM 66.7 °F 35.8 °F 32% 30.45 in 10.0 mi NNW 12.7 mph - N/A   Clear
2:55 AM 65.5 °F 36.5 °F 34% 30.46 in 10.0 mi NW 9.2 mph - N/A   Clear
3:15 AM 65.3 °F 36.0 °F 34% 30.45 in 10.0 mi NNW 10.4 mph - N/A   Clear
3:35 AM 64.0 °F 36.7 °F 36% 30.46 in 10.0 mi NW 11.5 mph - N/A   Clear
3:55 AM 62.8 °F 37.4 °F 39% 30.47 in 10.0 mi NNW 9.2 mph - N/A   Clear
4:15 AM 62.8 °F 37.0 °F 38% 30.47 in 10.0 mi NNW 8.1 mph - N/A   Clear
4:35 AM 61.5 °F 38.3 °F 42% 30.47 in 10.0 mi NW 10.4 mph - N/A   Clear
4:55 AM 60.3 °F 38.3 °F 44% 30.48 in 10.0 mi NW 4.6 mph - N/A   Clear
5:15 AM 59.5 °F 37.9 °F 45% 30.49 in 10.0 mi NW 5.8 mph - N/A   Clear
5:35 AM 59.9 °F 38.3 °F 45% 30.49 in 10.0 mi NNW 8.1 mph - N/A   Clear
5:55 AM 58.1 °F 39.0 °F 49% 30.49 in 10.0 mi West 9.2 mph - N/A   Clear
6:15 AM 57.6 °F 39.4 °F 51% 30.50 in 10.0 mi WNW 5.8 mph - N/A   Clear
6:35 AM 59.9 °F 38.3 °F 45% 30.50 in 10.0 mi Calm Calm - N/A   Clear
6:55 AM 60.3 °F 39.0 °F 45% 30.51 in 10.0 mi NNW 6.9 mph - N/A   Clear
7:15 AM 61.2 °F 38.7 °F 43% 30.52 in 10.0 mi NNW 8.1 mph - N/A   Clear
7:35 AM 61.0 °F 39.2 °F 45% 30.52 in 10.0 mi NW 4.6 mph - N/A   Clear
7:55 AM 65.1 °F 37.4 °F 36% 30.52 in 10.0 mi NNW 4.6 mph - N/A   Clear
8:15 AM 66.4 °F 37.8 °F 35% 30.52 in 10.0 mi NNW 5.8 mph - N/A   Clear
8:55 AM 70.0 °F 37.2 °F 30% 30.52 in 10.0 mi NNW 4.6 mph - N/A   Clear
9:15 AM 72.0 °F 39.9 °F 31% 30.52 in 10.0 mi Calm Calm - N/A   Clear
9:35 AM 72.9 °F 39.4 °F 30% 30.51 in 10.0 mi Calm Calm - N/A   Clear
9:55 AM 76.3 °F 37.0 °F 24% 30.50 in 10.0 mi NNW 3.5 mph - N/A   Clear
10:15 AM 77.2 °F 36.9 °F 23% 30.50 in 10.0 mi NNW 3.5 mph - N/A   Clear
10:35 AM 78.8 °F 37.0 °F 22% 30.49 in 10.0 mi Calm Calm - N/A   Clear
10:55 AM 82.4 °F 36.9 °F 20% 30.49 in 10.0 mi NNE 3.5 mph - N/A   Clear
11:15 AM 84.7 °F 33.6 °F 16% 30.49 in 10.0 mi NNE 4.6 mph - N/A   Clear
11:35 AM 85.5 °F 31.5 °F 14% 30.48 in 10.0 mi Calm Calm - N/A   Clear
11:55 AM 88.2 °F 30.0 °F 12% 30.47 in 10.0 mi NNE 5.8 mph - N/A   Clear
12:15 PM 88.0 °F 29.3 °F 12% 30.47 in 10.0 mi NNE 4.6 mph - N/A   Clear
12:35 PM 89.8 °F 30.9 °F 12% 30.46 in 10.0 mi North 6.9 mph - N/A   Clear
12:55 PM 88.7 °F 30.6 °F 12% 30.46 in 10.0 mi Calm Calm - N/A   Clear
1:15 PM 88.2 °F 29.8 °F 12% 30.45 in 10.0 mi NNW 12.7 mph 18.4 mph N/A   Scattered Clouds
1:35 PM 86.7 °F 30.0 °F 13% 30.45 in 10.0 mi NNE 4.6 mph - N/A   Scattered Clouds
1:55 PM 90.5 °F 30.0 °F 12% 30.44 in 10.0 mi Calm Calm - N/A   Clear
2:15 PM 86.4 °F 31.3 °F 14% 30.44 in 10.0 mi SE 8.1 mph - N/A   Clear
2:35 PM 89.1 °F 30.6 °F 12% 30.43 in 10.0 mi ESE 8.1 mph - N/A   Clear
2:55 PM 87.1 °F 29.8 °F 13% 30.42 in 10.0 mi SE 3.5 mph - N/A   Clear
3:15 PM 86.7 °F 29.3 °F 13% 30.42 in 10.0 mi ESE 3.5 mph - N/A   Clear
3:35 PM 88.0 °F 29.3 °F 12% 30.41 in 10.0 mi ESE 9.2 mph - N/A   Clear
3:55 PM 87.8 °F 30.7 °F 13% 30.41 in 10.0 mi SE 10.4 mph - N/A   Clear
4:15 PM 87.1 °F 30.0 °F 13% 30.40 in 10.0 mi East 9.2 mph - N/A   Clear
4:35 PM 88.9 °F 30.6 °F 12% 30.40 in 10.0 mi ESE 8.1 mph - N/A   Clear
4:55 PM 86.9 °F 29.3 °F 13% 30.40 in 10.0 mi SE 11.5 mph 19.6 mph N/A   Clear
5:15 PM 86.4 °F 30.7 °F 14% 30.39 in 10.0 mi ESE 11.5 mph 18.4 mph N/A   Clear
5:35 PM 87.8 °F 30.2 °F 13% 30.39 in 10.0 mi ESE 10.4 mph 18.4 mph N/A   Clear
5:55 PM 86.9 °F 31.5 °F 14% 30.39 in 10.0 mi ESE 11.5 mph 16.1 mph N/A   Clear
6:15 PM 84.4 °F 35.2 °F 17% 30.39 in 10.0 mi SE 20.7 mph 31.1 mph N/A   Clear
6:35 PM 83.3 °F 36.9 °F 19% 30.39 in 10.0 mi ESE 17.3 mph 28.8 mph N/A   Clear
6:55 PM 82.9 °F 37.8 °F 20% 30.40 in 10.0 mi ESE 15.0 mph 27.6 mph N/A   Clear
7:15 PM 81.5 °F 38.1 °F 21% 30.40 in 10.0 mi ESE 20.7 mph 26.5 mph N/A   Scattered Clouds
7:35 PM 80.2 °F 37.9 °F 22% 30.41 in 10.0 mi SE 16.1 mph 23.0 mph N/A   Scattered Clouds
7:55 PM 79.9 °F 38.3 °F 23% 30.42 in 10.0 mi East 10.4 mph 19.6 mph N/A   Overcast
8:15 PM 79.9 °F 38.1 °F 22% 30.45 in 10.0 mi NE 6.9 mph - N/A   Overcast
8:35 PM 74.7 °F 44.6 °F 34% 30.46 in 10.0 mi NNW 3.5 mph 20.7 mph N/A   Overcast
8:55 PM 75.4 °F 46.8 °F 36% 30.46 in 10.0 mi NW 5.8 mph - N/A   Scattered Clouds
9:15 PM 73.8 °F 43.7 °F 34% 30.48 in 10.0 mi NW 8.1 mph - N/A   Scattered Clouds
9:35 PM 73.4 °F 42.6 °F 33% 30.49 in 10.0 mi NNW 6.9 mph - N/A   Scattered Clouds
9:55 PM 72.9 °F 42.4 °F 33% 30.50 in 10.0 mi NNW 5.8 mph - N/A   Clear
10:15 PM 72.7 °F 42.3 °F 33% 30.50 in 10.0 mi NNW 6.9 mph - N/A   Clear
10:35 PM 70.3 °F 43.0 °F 37% 30.50 in 10.0 mi NNW 5.8 mph - N/A   Clear
10:55 PM 70.7 °F 42.4 °F 36% 30.50 in 10.0 mi NW 4.6 mph - N/A   Clear
11:15 PM 70.5 °F 42.6 °F 36% 30.51 in 10.0 mi NW 5.8 mph - N/A   Clear
11:35 PM 68.0 °F 45.1 °F 44% 30.51 in 10.0 mi NW 5.8 mph - N/A   Clear
11:55 PM 68.9 °F 44.4 °F 41% 30.51 in 10.0 mi WNW 3.5 mph - N/A   Clear